When you browse on this site, cookies collect data to enhance your experience and personalize the content and advertising you see.
Visit our Privacy Policy to learn more. By continuing to use the site, you agree to this use of cookies and data.
  • In Schweiz
  • Länderverzeichnis
  • Für 7 Tage
  • Wassertemperatur
  • Wetterkarte
  • Widgets
  • user-avatar
    Anmelden

    Stündliche Wetter Northallerton

    Heute, 29 Januar, Mittwoch

    Zeit Temperatur Niederschläge Wind Luftdruck Luftfeuchtigkeit
    00:00 +1°C° 0 mm 5 m/S 742 mmHg 87%
    01:00 +1°C° 0 mm 5 m/S 743 mmHg 86%
    02:00 +1°C° 0 mm 5 m/S 743 mmHg 84%
    03:00 +1°C° 0 mm 6 m/S 744 mmHg 83%
    04:00 +1°C° 0 mm 6 m/S 744 mmHg 83%
    05:00 +1°C° 0 mm 6 m/S 745 mmHg 83%
    06:00 +1°C° 0 mm 6 m/S 745 mmHg 82%
    07:00 +1°C° 0 mm 6 m/S 746 mmHg 82%
    08:00 +1°C° 0 mm 6 m/S 746 mmHg 82%
    09:00 +1°C° 0 mm 6 m/S 747 mmHg 82%
    10:00 +2°C° 0 mm 6 m/S 747 mmHg 80%
    11:00 +3°C° 0 mm 7 m/S 748 mmHg 78%
    12:00 +4°C° 0 mm 7 m/S 748 mmHg 77%
    13:00 +4°C° 0 mm 7 m/S 748 mmHg 79%
    14:00 +4°C° 0 mm 8 m/S 747 mmHg 81%
    15:00 +3°C° 0 mm 9 m/S 746 mmHg 83%
    16:00 +3°C° 0.1 mm 9 m/S 746 mmHg 83%
    17:00 +5°C° 0.1 mm 9 m/S 746 mmHg 83%
    18:00 +5°C° 0.1 mm 10 m/S 746 mmHg 83%
    19:00 +5°C° 0.1 mm 9 m/S 746 mmHg 83%
    20:00 +6°C° 0.1 mm 8 m/S 746 mmHg 82%
    21:00 +6°C° 0.1 mm 8 m/S 746 mmHg 82%
    22:00 +6°C° 0 mm 7 m/S 746 mmHg 82%
    23:00 +6°C° 0 mm 7 m/S 747 mmHg 83%

    Morgen, 30 Januar, Donnerstag

    Zeit Temperatur Niederschläge Wind Luftdruck Luftfeuchtigkeit
    00:00 +6°C° 0 mm 7 m/S 747 mmHg 83%
    01:00 +5°C° 0 mm 7 m/S 747 mmHg 84%
    02:00 +5°C° 0 mm 7 m/S 747 mmHg 85%
    03:00 +5°C° 0 mm 6 m/S 747 mmHg 86%
    04:00 +5°C° 0 mm 6 m/S 746 mmHg 87%
    05:00 +6°C° 0 mm 5 m/S 746 mmHg 88%
    06:00 +5°C° 0 mm 5 m/S 746 mmHg 89%
    07:00 +5°C° 0 mm 5 m/S 745 mmHg 89%
    08:00 +5°C° 0 mm 5 m/S 745 mmHg 89%
    09:00 +3°C° 0 mm 5 m/S 745 mmHg 89%
    10:00 +5°C° 0 mm 6 m/S 744 mmHg 86%
    11:00 +6°C° 0 mm 7 m/S 743 mmHg 84%
    12:00 +9°C° 0 mm 8 m/S 742 mmHg 81%
    13:00 +8°C° 0 mm 9 m/S 741 mmHg 81%
    14:00 +9°C° 0 mm 10 m/S 741 mmHg 81%
    15:00 +9°C° 0 mm 10 m/S 740 mmHg 81%
    16:00 +8°C° 0 mm 9 m/S 741 mmHg 79%
    17:00 +7°C° 0 mm 8 m/S 741 mmHg 78%
    18:00 +7°C° 0 mm 8 m/S 741 mmHg 76%
    19:00 +7°C° 0 mm 6 m/S 742 mmHg 76%
    20:00 +6°C° 0 mm 5 m/S 743 mmHg 76%
    21:00 +5°C° 0 mm 4 m/S 743 mmHg 76%
    22:00 +5°C° 0 mm 5 m/S 744 mmHg 77%
    23:00 +5°C° 0 mm 5 m/S 745 mmHg 79%

    übermorgen, 31 Januar, Freitag

    Zeit Temperatur Niederschläge Wind Luftdruck Luftfeuchtigkeit
    00:00 +5°C° 0 mm 5 m/S 746 mmHg 81%
    01:00 +4°C° 0 mm 6 m/S 746 mmHg 82%
    02:00 +4°C° 0 mm 6 m/S 746 mmHg 84%
    03:00 +4°C° 0 mm 7 m/S 746 mmHg 86%
    04:00 +5°C° 0 mm 7 m/S 745 mmHg 86%
    05:00 +5°C° 0 mm 7 m/S 745 mmHg 86%
    06:00 +6°C° 0 mm 7 m/S 745 mmHg 86%
    07:00 +6°C° 0.4 mm 7 m/S 745 mmHg 88%
    08:00 +8°C° 0.4 mm 7 m/S 744 mmHg 89%
    09:00 +9°C° 0.4 mm 7 m/S 744 mmHg 90%
    10:00 +9°C° 0.6 mm 7 m/S 744 mmHg 90%
    11:00 +9°C° 0.6 mm 8 m/S 744 mmHg 89%
    12:00 +10°C° 0.6 mm 8 m/S 744 mmHg 88%
    13:00 +10°C° 0 mm 7 m/S 744 mmHg 88%
    14:00 +11°C° 0 mm 7 m/S 744 mmHg 87%
    15:00 +11°C° 0 mm 6 m/S 743 mmHg 86%
    16:00 +11°C° 0 mm 6 m/S 743 mmHg 87%
    17:00 +11°C° 0 mm 6 m/S 743 mmHg 87%
    18:00 +11°C° 0 mm 6 m/S 742 mmHg 87%
    19:00 +10°C° 0 mm 6 m/S 742 mmHg 87%
    20:00 +10°C° 0 mm 6 m/S 742 mmHg 87%
    21:00 +9°C° 0 mm 6 m/S 742 mmHg 86%
    22:00 +9°C° 0 mm 6 m/S 741 mmHg 86%
    23:00 +8°C° 0 mm 6 m/S 741 mmHg 86%

    1 Februar, Samstag

    Zeit Temperatur Niederschläge Wind Luftdruck Luftfeuchtigkeit
    00:00 +8°C° 0 mm 6 m/S 741 mmHg 86%
    01:00 +8°C° 0.1 mm 6 m/S 741 mmHg 86%
    02:00 +8°C° 0.1 mm 7 m/S 740 mmHg 85%
    03:00 +6°C° 0.1 mm 7 m/S 740 mmHg 84%
    04:00 +6°C° 0 mm 7 m/S 740 mmHg 81%
    05:00 +5°C° 0 mm 8 m/S 740 mmHg 78%
    06:00 +4°C° 0 mm 8 m/S 740 mmHg 75%
    07:00 +3°C° 0.1 mm 9 m/S 740 mmHg 78%
    08:00 +3°C° 0.1 mm 11 m/S 740 mmHg 80%
    09:00 +3°C° 0.1 mm 12 m/S 740 mmHg 83%
    10:00 +4°C° 0.2 mm 12 m/S 741 mmHg 79%
    11:00 +4°C° 0.2 mm 13 m/S 741 mmHg 75%
    12:00 +5°C° 0.2 mm 14 m/S 742 mmHg 71%
    13:00 +5°C° 0.2 mm 14 m/S 742 mmHg 74%
    14:00 +4°C° 0.2 mm 14 m/S 743 mmHg 77%
    15:00 +4°C° 0.2 mm 13 m/S 743 mmHg 80%
    16:00 +4°C° 0.1 mm 12 m/S 744 mmHg 80%
    17:00 +4°C° 0.1 mm 11 m/S 746 mmHg 79%
    18:00 +5°C° 0.1 mm 9 m/S 747 mmHg 79%
    19:00 +5°C° 0 mm 9 m/S 748 mmHg 80%
    20:00 +4°C° 0 mm 8 m/S 749 mmHg 80%
    21:00 +4°C° 0 mm 7 m/S 751 mmHg 81%
    22:00 +4°C° 0 mm 6 m/S 751 mmHg 82%
    23:00 +3°C° 0 mm 5 m/S 752 mmHg 83%

    2 Februar, Sonntag

    Zeit Temperatur Niederschläge Wind Luftdruck Luftfeuchtigkeit
    00:00 +4°C° 0 mm 4 m/S 752 mmHg 84%
    01:00 +4°C° 0 mm 4 m/S 753 mmHg 84%
    02:00 +4°C° 0 mm 4 m/S 753 mmHg 85%
    03:00 +4°C° 0 mm 4 m/S 753 mmHg 85%
    04:00 +3°C° 0.3 mm 4 m/S 753 mmHg 87%
    05:00 +3°C° 0.3 mm 4 m/S 752 mmHg 89%
    06:00 +3°C° 0.3 mm 4 m/S 752 mmHg 90%
    07:00 +1°C° 0.7 mm 4 m/S 751 mmHg 92%
    08:00 +1°C° 0.7 mm 5 m/S 750 mmHg 94%
    09:00 0°C° 0.7 mm 5 m/S 750 mmHg 96%
    10:00 +1°C° 0.1 mm 5 m/S 749 mmHg 95%
    11:00 +3°C° 0.1 mm 5 m/S 749 mmHg 94%
    12:00 +5°C° 0.1 mm 5 m/S 749 mmHg 93%
    13:00 +6°C° 0 mm 5 m/S 749 mmHg 89%
    14:00 +7°C° 0 mm 6 m/S 749 mmHg 86%
    15:00 +8°C° 0 mm 7 m/S 750 mmHg 82%
    16:00 +8°C° 0 mm 7 m/S 750 mmHg 83%
    17:00 +7°C° 0 mm 6 m/S 751 mmHg 85%
    18:00 +7°C° 0 mm 6 m/S 751 mmHg 86%
    19:00 +7°C° 0 mm 5 m/S 752 mmHg 87%
    20:00 +6°C° 0 mm 5 m/S 752 mmHg 88%
    21:00 +6°C° 0 mm 4 m/S 753 mmHg 89%
    22:00 +7°C° 0 mm 3 m/S 753 mmHg 91%
    23:00 +7°C° 0 mm 3 m/S 753 mmHg 92%

    3 Februar, Montag

    Zeit Temperatur Niederschläge Wind Luftdruck Luftfeuchtigkeit
    00:00 +6°C° 0 mm 2 m/S 753 mmHg 94%
    01:00 +6°C° 0.1 mm 2 m/S 752 mmHg 94%
    02:00 +5°C° 0.1 mm 3 m/S 751 mmHg 95%
    03:00 +5°C° 0.1 mm 3 m/S 750 mmHg 96%
    04:00 +5°C° 2 mm 4 m/S 748 mmHg 96%
    05:00 +6°C° 2 mm 5 m/S 747 mmHg 96%
    06:00 +5°C° 2 mm 7 m/S 745 mmHg 95%
    07:00 +6°C° 0.9 mm 8 m/S 744 mmHg 90%
    08:00 +7°C° 0.9 mm 8 m/S 743 mmHg 85%
    09:00 +8°C° 0.9 mm 9 m/S 743 mmHg 80%
    10:00 +8°C° 0 mm 10 m/S 743 mmHg 78%
    11:00 +8°C° 0 mm 11 m/S 744 mmHg 76%
    12:00 +8°C° 0 mm 11 m/S 744 mmHg 73%
    13:00 +8°C° 0 mm 11 m/S 743 mmHg 73%
    14:00 +8°C° 0 mm 10 m/S 743 mmHg 73%
    15:00 +8°C° 0 mm 9 m/S 743 mmHg 72%
    16:00 +7°C° 1.1 mm 8 m/S 742 mmHg 77%
    17:00 +6°C° 1.1 mm 8 m/S 741 mmHg 81%
    18:00 +6°C° 1.1 mm 7 m/S 740 mmHg 85%
    19:00 +6°C° 0.3 mm 8 m/S 740 mmHg 85%
    20:00 +5°C° 0.3 mm 9 m/S 740 mmHg 85%
    21:00 +5°C° 0.3 mm 10 m/S 740 mmHg 85%
    22:00 +5°C° 0.1 mm 10 m/S 740 mmHg 84%
    23:00 +3°C° 0.1 mm 10 m/S 740 mmHg 84%
    Mehr zeigen